Nuremberg Airport

Airport
ICAO code: 
EDDN
IATA Code: 
NUE
Summary
ICAO Region: 
EUR
Territory: 
Location: 
Nuremberg, Bavaria, Germany,
Serving: 
Nuremberg
Elevation: 
1046 ft
Coordinates: 
Aerial View: 
49° 29' 51.266" N, 11° 4' 36.653" E
Airport WX: 
Fog
Metar
Observation
EDDN 200950Z 26017KT 9999 VCSH BKN016 03/01 Q1021 TEMPO 29015G25KT 2000 SHSN BKN012TCU
Station
Nuernberg
Date/Time
2022-01-20 09:50:00
Wind direction
260°
Wind speed
17 kts
Lowest cloud amount
broken clouds
Temperature
3°C
Dew point
1°C
Humidity
86%
QNH
1021 hPa
Weather condition
in vicinity: showers

Description

International airport 5 km north of the city centre.

Climatology

Temperate Marine climate/Oceanic climate (Köppen climate classification Cfb). Moderately cool summer and comparatively warm winter with a temperature range of only 14°C. Prevailing south-westerly winds from the Atlantic Ocean.

Runways

Designator Length Width Surface Rops
10/28 2700 45 ASP Yes/Yes
Airport map: 
Aerial View: 

SKYbrary Partners:

Safety knowledge contributed by: